When you browse on this site, cookies collect data to enhance your experience and personalize the content and advertising you see.
Visit our Privacy Policy to learn more. By continuing to use the site, you agree to this use of cookies and data.
  • En España
  • Lista de países
  • Para 7 días
  • Temperatura del agua
  • El tiempo en el mapa
  • Informadores
  • user-avatar
    Iniciar sesión

    Tiempo cada hora Illapel

    Hoy, 28 Marzo, Sábado

    Tiempo Temperatura Precipitaciones Viento Presión Humedad
    00:00 +13°C° 0 mm 0 mps 721 mmHg 92%
    01:00 +13°C° 0 mm 0 mps 721 mmHg 90%
    02:00 +12°C° 0 mm 0 mps 721 mmHg 91%
    03:00 +12°C° 0 mm 0 mps 720 mmHg 92%
    04:00 +12°C° 0 mm 1 mps 720 mmHg 92%
    05:00 +13°C° 0 mm 0 mps 721 mmHg 88%
    06:00 +15°C° 0 mm 0 mps 722 mmHg 84%
    07:00 +17°C° 0 mm 0 mps 722 mmHg 79%
    08:00 +21°C° 0 mm 1 mps 722 mmHg 70%
    09:00 +23°C° 0 mm 2 mps 723 mmHg 61%
    10:00 +25°C° 0 mm 3 mps 723 mmHg 51%
    11:00 +26°C° 0 mm 3 mps 723 mmHg 49%
    12:00 +27°C° 0 mm 3 mps 723 mmHg 46%
    13:00 +27°C° 0 mm 4 mps 723 mmHg 43%
    14:00 +26°C° 0 mm 4 mps 723 mmHg 47%
    15:00 +25°C° 0 mm 3 mps 722 mmHg 50%
    16:00 +24°C° 0 mm 3 mps 722 mmHg 54%
    17:00 +21°C° 0 mm 2 mps 722 mmHg 65%
    18:00 +19°C° 0 mm 1 mps 722 mmHg 77%
    19:00 +14°C° 0 mm 0 mps 722 mmHg 88%
    20:00 +14°C° 0 mm 0 mps 723 mmHg 88%
    21:00 +13°C° 0 mm 0 mps 723 mmHg 87%
    22:00 +13°C° 0 mm 0 mps 723 mmHg 87%
    23:00 +13°C° 0 mm 0 mps 723 mmHg 88%

    Mañana, 29 Marzo, Domingo

    Tiempo Temperatura Precipitaciones Viento Presión Humedad
    00:00 +13°C° 0 mm 0 mps 722 mmHg 89%
    01:00 +12°C° 0 mm 0 mps 722 mmHg 89%
    02:00 +12°C° 0 mm 0 mps 722 mmHg 88%
    03:00 +13°C° 0 mm 0 mps 722 mmHg 86%
    04:00 +13°C° 0 mm 0 mps 722 mmHg 85%
    05:00 +15°C° 0 mm 0 mps 723 mmHg 79%
    06:00 +16°C° 0 mm 0 mps 723 mmHg 72%
    07:00 +20°C° 0 mm 1 mps 724 mmHg 66%
    08:00 +23°C° 0 mm 1 mps 724 mmHg 58%
    09:00 +25°C° 0 mm 2 mps 724 mmHg 50%
    10:00 +27°C° 0 mm 2 mps 724 mmHg 42%
    11:00 +28°C° 0 mm 3 mps 724 mmHg 40%
    12:00 +29°C° 0 mm 3 mps 724 mmHg 38%
    13:00 +29°C° 0 mm 4 mps 724 mmHg 36%
    14:00 +29°C° 0 mm 3 mps 723 mmHg 39%
    15:00 +28°C° 0 mm 3 mps 723 mmHg 41%
    16:00 +27°C° 0 mm 3 mps 723 mmHg 44%
    17:00 +24°C° 0 mm 2 mps 723 mmHg 56%
    18:00 +21°C° 0 mm 1 mps 723 mmHg 68%
    19:00 +18°C° 0 mm 1 mps 722 mmHg 80%
    20:00 +16°C° 0 mm 1 mps 722 mmHg 81%
    21:00 +16°C° 0 mm 1 mps 722 mmHg 82%
    22:00 +15°C° 0 mm 1 mps 722 mmHg 83%
    23:00 +15°C° 0 mm 1 mps 722 mmHg 83%

    Pasado mañana, 30 Marzo, Lunes

    Tiempo Temperatura Precipitaciones Viento Presión Humedad
    00:00 +14°C° 0 mm 0 mps 722 mmHg 83%
    01:00 +14°C° 0 mm 0 mps 722 mmHg 83%
    02:00 +14°C° 0 mm 0 mps 722 mmHg 82%
    03:00 +14°C° 0 mm 0 mps 722 mmHg 81%
    04:00 +14°C° 0 mm 0 mps 721 mmHg 81%
    05:00 +16°C° 0 mm 0 mps 722 mmHg 73%
    06:00 +18°C° 0 mm 0 mps 722 mmHg 65%
    07:00 +20°C° 0 mm 0 mps 723 mmHg 58%
    08:00 +24°C° 0 mm 1 mps 723 mmHg 51%
    09:00 +27°C° 0 mm 2 mps 723 mmHg 43%
    10:00 +29°C° 0 mm 2 mps 723 mmHg 36%
    11:00 +30°C° 0 mm 3 mps 723 mmHg 34%
    12:00 +31°C° 0 mm 3 mps 723 mmHg 32%
    13:00 +33°C° 0 mm 4 mps 723 mmHg 31%
    14:00 +30°C° 0 mm 4 mps 722 mmHg 33%
    15:00 +29°C° 0 mm 3 mps 722 mmHg 35%
    16:00 +28°C° 0 mm 3 mps 722 mmHg 37%
    17:00 +25°C° 0 mm 2 mps 722 mmHg 51%
    18:00 +21°C° 0 mm 1 mps 722 mmHg 65%
    19:00 +16°C° 0 mm 1 mps 722 mmHg 79%
    20:00 +16°C° 0 mm 1 mps 721 mmHg 78%
    21:00 +16°C° 0 mm 1 mps 721 mmHg 78%
    22:00 +16°C° 0 mm 1 mps 721 mmHg 78%
    23:00 +16°C° 0 mm 1 mps 721 mmHg 77%

    31 Marzo, Martes

    Tiempo Temperatura Precipitaciones Viento Presión Humedad
    00:00 +16°C° 0 mm 1 mps 721 mmHg 77%
    01:00 +16°C° 0 mm 1 mps 720 mmHg 77%
    02:00 +15°C° 0 mm 1 mps 720 mmHg 77%
    03:00 +14°C° 0 mm 0 mps 720 mmHg 78%
    04:00 +13°C° 0 mm 0 mps 720 mmHg 78%
    05:00 +15°C° 0 mm 0 mps 720 mmHg 70%
    06:00 +18°C° 0 mm 0 mps 721 mmHg 61%
    07:00 +20°C° 0 mm 0 mps 722 mmHg 53%
    08:00 +24°C° 0 mm 1 mps 722 mmHg 47%
    09:00 +26°C° 0 mm 2 mps 722 mmHg 42%
    10:00 +28°C° 0 mm 3 mps 722 mmHg 36%
    11:00 +29°C° 0 mm 3 mps 722 mmHg 35%
    12:00 +29°C° 0 mm 3 mps 722 mmHg 34%
    13:00 +30°C° 0 mm 4 mps 722 mmHg 33%
    14:00 +29°C° 0 mm 4 mps 722 mmHg 35%
    15:00 +28°C° 0 mm 3 mps 721 mmHg 37%
    16:00 +27°C° 0 mm 3 mps 721 mmHg 39%
    17:00 +23°C° 0 mm 2 mps 721 mmHg 53%
    18:00 +18°C° 0 mm 2 mps 721 mmHg 66%
    19:00 +15°C° 0 mm 1 mps 721 mmHg 80%
    20:00 +14°C° 0 mm 1 mps 721 mmHg 81%
    21:00 +14°C° 0 mm 1 mps 721 mmHg 81%
    22:00 +14°C° 0 mm 1 mps 721 mmHg 82%
    23:00 +14°C° 0 mm 1 mps 721 mmHg 81%

    1 Abril, Miércoles

    Tiempo Temperatura Precipitaciones Viento Presión Humedad
    00:00 +14°C° 0 mm 1 mps 721 mmHg 81%
    01:00 +14°C° 0 mm 1 mps 721 mmHg 80%
    02:00 +13°C° 0 mm 1 mps 721 mmHg 80%
    03:00 +13°C° 0 mm 1 mps 721 mmHg 80%
    04:00 +13°C° 0 mm 1 mps 721 mmHg 80%
    05:00 +15°C° 0 mm 1 mps 721 mmHg 70%
    06:00 +17°C° 0 mm 0 mps 722 mmHg 60%
    07:00 +19°C° 0 mm 0 mps 723 mmHg 51%
    08:00 +23°C° 0 mm 1 mps 723 mmHg 45%
    09:00 +25°C° 0 mm 2 mps 723 mmHg 39%
    10:00 +28°C° 0 mm 3 mps 723 mmHg 33%
    11:00 +28°C° 0 mm 3 mps 723 mmHg 32%
    12:00 +29°C° 0 mm 4 mps 723 mmHg 30%
    13:00 +30°C° 0 mm 4 mps 723 mmHg 29%
    14:00 +29°C° 0 mm 4 mps 723 mmHg 31%
    15:00 +28°C° 0 mm 3 mps 723 mmHg 33%
    16:00 +27°C° 0 mm 3 mps 722 mmHg 34%
    17:00 +23°C° 0 mm 2 mps 722 mmHg 48%
    18:00 +18°C° 0 mm 2 mps 722 mmHg 62%
    19:00 +15°C° 0 mm 1 mps 722 mmHg 76%
    20:00 +15°C° 0 mm 1 mps 722 mmHg 75%
    21:00 +15°C° 0 mm 1 mps 722 mmHg 74%
    22:00 +15°C° 0 mm 1 mps 722 mmHg 73%
    23:00 +15°C° 0 mm 1 mps 722 mmHg 71%

    2 Abril, Jueves

    Tiempo Temperatura Precipitaciones Viento Presión Humedad
    00:00 +15°C° 0 mm 1 mps 722 mmHg 70%
    01:00 +15°C° 0 mm 1 mps 722 mmHg 68%
    02:00 +15°C° 0 mm 1 mps 721 mmHg 67%
    03:00 +14°C° 0 mm 1 mps 721 mmHg 66%
    04:00 +14°C° 0 mm 1 mps 721 mmHg 65%
    05:00 +16°C° 0 mm 0 mps 721 mmHg 54%
    06:00 +18°C° 0 mm 0 mps 722 mmHg 43%
    07:00 +21°C° 0 mm 0 mps 722 mmHg 32%
    08:00 +26°C° 0 mm 1 mps 723 mmHg 28%
    09:00 +28°C° 0 mm 2 mps 723 mmHg 24%
    10:00 +31°C° 0 mm 2 mps 723 mmHg 19%
    11:00 +31°C° 0 mm 3 mps 723 mmHg 20%
    12:00 +31°C° 0 mm 3 mps 723 mmHg 21%
    13:00 +33°C° 0 mm 4 mps 723 mmHg 22%
    14:00 +30°C° 0 mm 3 mps 723 mmHg 24%
    15:00 +29°C° 0 mm 3 mps 722 mmHg 26%
    16:00 +28°C° 0 mm 3 mps 722 mmHg 29%
    17:00 +24°C° 0 mm 2 mps 722 mmHg 43%
    18:00 +20°C° 0 mm 1 mps 722 mmHg 57%
    19:00 +14°C° 0 mm 0 mps 722 mmHg 72%
    20:00 +13°C° 0 mm 0 mps 721 mmHg 71%
    21:00 +13°C° 0 mm 0 mps 721 mmHg 70%
    22:00 +13°C° 0 mm 0 mps 721 mmHg 70%
    23:00 +13°C° 0 mm 0 mps 721 mmHg 69%
    Mostrar más